Starlink 5661

operational
NORAD ID: 55343 Int'l Des: 2023-013 Owner: SPXS Country: US Constellation: starlink
LEOCIRCULAR

Über Starlink 5661

Beschreibung wird geladen...

Live-Position

3D-Globus wird geladen...

Nächste Überflüge

Höhenverlauf

Altitude vs Time

uPlot chart will show altitude changes over time

Zweizeiliger Elementsatz

1 55343U 23013N 25351.15818054 .00000681 00000-0 65452-4 0 9998
2 55343 43.0030 28.8587 0001514 284.7959 75.2716 15.02538947159293
Epoch: 17. Dez. 2025 • Age: 14 hours

Aktueller Status

Höhe 560.5 km
Geschwindigkeit 7.58 km/s
Subsatellitenpunkt -11.69°S, 15.07°E
Startdatum 26. Jan. 2023
Alter 2.8 years
Typ internet

Technische Details

Klassifizierung Payload
Masse 305.00 kg
Trockenmasse 290.00 kg
Gesamtmasse 305.00 kg
Länge 0.20 m
Durchmesser 2.80 m
Spannweite 9.00 m
Form Box + pan
Hersteller SPXS
Bus-Typ Starlink
Phasenstatus In Orbit
Besitzer/Staat SPXS/US

Große Konstellationen

Loading constellations...